Location: Artists Bluff
(44.1812°N, 71.6976°W)
Time: 04:36:42
(UTC+00:00)

Daily predictions for brighter satellites

Satellite Brightness Start Highest point End
(mag) Time Altitude Azimuth Time Altitude Azimuth Time Altitude Azimuth
COSMO-SKYMED 1 4.3 00:04:34 29° WNW 00:04:34 29° WNW 00:08:05 10° SW
Cosmos 2263 Rocket 3.0 00:02:57 10° NW 00:08:25 49° WSW 00:10:29 33° SSW
COSMOS 2455 4.4 00:10:48 10° SSW 00:13:10 25° S 00:13:10 25° S
Cosmos 2227 Rocket 4.4 00:17:02 10° NW 00:21:14 22° W 00:25:25 10° SSW
USA 59 Rocket 3.2 08:25:42 11° E 08:25:42 11° E 08:25:50 10° ESE
SL-16 R/B 4.5 08:24:48 17° NE 08:25:06 17° NE 08:28:46 10° E
Cosmos 2082 Rocket 4.3 08:28:47 21° NE 08:28:47 21° NE 08:30:48 10° NE
Cosmos 1980 Rocket 4.3 08:50:21 18° SSE 08:50:21 18° SSE 08:51:39 10° SSE
USA 234 4.5 08:46:28 10° NE 08:50:37 30° NNE 08:50:37 30° NNE
COSMOS 2455 2.9 09:16:32 76° ESE 09:16:32 76° ESE 09:22:06 10° SSE
NOSS 3-1 (C) 4.2 09:14:33 48° NNW 09:16:49 69° NE 09:25:40 10° SE
Cosmos 2360 Rocket 4.3 09:14:43 14° N 09:17:51 21° NE 09:22:04 10° E
Cosmos 2333 Rocket 3.8 09:17:08 21° N 09:19:55 31° NE 09:24:57 10° ESE
Cosmos 1898 Rocket 3.6 09:30:12 71° SSE 09:30:12 71° SSE 09:34:52 10° SSE
CZ-3 R/B 4.4 09:25:11 28° WSW 09:29:57 31° SW 09:38:54 10° SSE
Nadezhda 4 Rocket 4.0 09:24:15 10° S 09:30:34 80° E 09:36:52 10° N
Cosmos 2219 Rocket 4.5 09:31:12 10° N 09:35:04 18° NE 09:38:54 10° E
IRS-1D 4.1 09:31:19 10° NNE 09:36:15 54° ESE 09:41:14 10° S
BREEZE-M DEB (TANK) 3.5 09:37:58 37° ENE 09:37:58 37° ENE 09:41:09 10° E
Cosmos 2322 Rocket 3.6 09:37:52 16° N 09:41:43 33° NE 09:46:49 10° ESE
Cosmos 2058 Rocket 4.4 09:46:15 11° N 09:50:11 38° ENE 09:54:17 10° SE
SKYMED 2 3.8 09:46:16 10° SSE 09:50:34 69° ENE 09:51:52 43° N
Cosmos 1937 Rocket 3.3 09:49:49 64° NNW 09:50:36 84° WSW 09:55:43 10° SSE
Helios 1A Rocket 3.7 09:52:38 10° SE 09:55:46 38° ENE 09:56:34 32° NE
Aureole 1 Rocket 4.5 09:54:49 43° WNW 09:56:22 49° WSW 10:03:28 10° S
Meteor 2-3 Rocket 3.7 09:53:44 10° S 09:59:29 89° W 10:05:12 10° N
Cosmos 2237 4.1 09:59:37 49° WNW 10:00:55 63° WSW 10:06:31 10° S
COSMOS 2406 3.1 10:01:53 31° SW 10:04:34 63° WNW 10:10:14 10° NNE
Cosmos 1606 Rocket 4.2 10:05:51 39° SW 10:05:51 39° SW 10:08:53 10° S
CZ-4 R/B 3.7 10:01:05 10° NNE 10:05:44 88° E 10:10:20 10° SSW
SL-4 R/B 2.9 10:09:43 27° NNE 10:09:43 27° NNE 10:12:15 10° ENE
Cosmos 2082 Rocket 3.0 10:10:40 31° NW 10:10:40 31° NW 10:14:45 10° N
SL-16 R/B 2.1 10:06:41 26° NNW 10:10:02 88° ENE 10:15:42 10° SSE
NOSS 2-1 (D) 4.2 10:10:52 38° SW 10:10:52 38° SW 10:15:11 10° S
USA 59 Rocket 0.8 10:11:24 34° SW 10:11:24 34° SW 10:15:39 10° S
Tiangong 0.3 10:19:19 15° SSW 10:19:19 15° SSW 10:20:47 10° S
Cosmos 405 Rocket 4.2 10:16:43 10° SSE 10:19:38 31° E 10:22:35 10° NNE
Cosmos 1627 Rocket 4.3 10:15:29 10° SSW 10:21:36 79° W 10:27:45 10° N
NOAA 12 4.0 10:16:39 10° N 10:21:55 67° WNW 10:27:06 10° SSW
NOSS 2-1 (E) 4.0 10:21:58 37° WSW 10:22:17 38° WSW 10:26:52 10° S
NOSS 3-1 (A) 4.1 10:19:25 19° NW 10:25:04 83° NE 10:34:05 10° SE
Cosmos 1726 Rocket 3.9 10:29:11 36° W 10:29:26 37° W 10:33:17 10° SSW
USA 234 4.4 10:28:39 10° ENE 10:34:08 29° N 10:37:58 17° NW
Cosmos 2278 3.6 10:30:00 18° NNW 10:34:11 70° WSW 10:39:46 10° SSE
Cosmos 2285 Rocket 4.3 10:32:51 10° NNW 10:39:14 71° ENE 10:45:37 10° SSE
Cosmos 841 Rocket 4.4 10:40:49 25° WNW 10:41:43 26° WNW 10:46:05 10° N
BREEZE-M DEB (TANK) 2.3 10:42:36 34° N 10:42:42 34° NNE 10:44:42 10° E
Cosmos 1626 Rocket 3.6 10:41:15 10° S 10:45:40 83° E 10:50:05 10° N
Cosmos 158 Rocket 4.1 10:40:43 10° SSW 10:46:02 80° ESE 10:51:18 10° NNE
Cosmos 2026 Rocket 4.1 10:40:29 10° SSW 10:46:18 48° WNW 10:52:12 10° N
IRIDIUM 106 4.4 10:42:43 10° S 10:47:55 82° E 10:53:10 10° N
Cosmos 1892 Rocket 4.3 10:46:50 10° SW 10:50:38 28° WNW 10:54:28 10° NNW
Cosmos-2242 3.2 10:49:35 10° NNW 10:53:38 46° W 10:57:37 10° SSW
COSMO-SKYMED 1 3.1 10:51:11 10° SSW 10:54:55 34° W 10:57:58 14° NW
SMAP 3.8 10:52:17 10° NNE 10:56:54 56° E 11:01:27 10° S
COSMOS 2455 4.3 10:59:43 15° W 11:01:12 17° WSW 11:04:48 10° SW
Cosmos 2360 Rocket 2.2 10:56:47 10° NNW 11:02:24 71° WSW 11:07:57 10° SSE
Cosmos 2333 Rocket 2.6 10:59:10 11° NW 11:04:24 46° WSW 11:09:50 10° S
Cosmos 1833 4.2 10:59:20 10° SSW 11:04:58 85° WNW 11:10:42 10° NNE
Cosmos 1125 Rocket 4.1 11:04:23 10° NNW 11:09:36 58° ENE 11:14:43 10° SE
S3M 4.5 11:05:28 10° N 11:11:38 64° E 11:17:41 10° SSE
Cosmos 1484 Rocket 3.0 11:08:31 10° N 11:11:39 35° WNW 11:14:44 10° SW
Cosmos 2237 Rocket 4.5 11:09:15 10° N 11:12:48 17° NE 11:16:20 10° E
Cosmos 1553 Rocket 4.1 11:06:48 10° NNW 11:13:06 62° W 11:19:23 10° S
IGS 5A 3.6 11:12:30 10° N 11:16:19 44° WNW 11:20:08 10° SW
Okean 1-7 Rocket 4.2 11:12:04 10° S 11:16:30 63° E 11:20:56 10° NNE
Cosmos 1437 Rocket 3.0 11:13:19 10° N 11:16:44 59° ENE 11:20:10 10° SSE
Cosmos 1743 2.2 11:14:07 10° SSW 11:17:19 60° W 11:20:32 10° N
SJ-12 4.2 11:15:28 10° NNE 11:19:15 65° E 11:23:02 10° S
Cosmos 1812 Rocket 3.5 11:15:20 10° N 11:19:40 89° WSW 11:24:00 10° S
Cosmos 2219 Rocket 2.2 11:14:04 10° NNW 11:19:46 86° WSW 11:25:23 10° SSE
Meteor 1-19 Rocket 4.5 11:18:18 10° N 11:24:08 82° E 11:30:05 10° SSE
Cosmos 1602 Rocket 3.5 11:19:48 10° SSW 11:24:14 73° W 11:28:41 10° N
Cosmos 2322 Rocket 2.7 11:20:31 10° NW 11:25:49 41° WSW 11:31:04 10° S
Cosmos 2058 Rocket 4.4 11:24:33 10° NW 11:27:44 20° W 11:30:53 10° SW
Helios 1A Rocket 4.4 11:27:06 10° WSW 11:28:31 12° W 11:29:56 10° WNW
Cosmos 192 4.3 11:26:42 10° NNW 11:31:38 77° WSW 11:36:31 10° SSE
ATLAS 3B R/B 3.7 11:25:06 10° NNW 11:32:42 49° NE 11:39:56 10° ESE
Cosmos 2322 4.4 11:29:57 10° NNW 11:35:31 54° ENE 11:41:03 10° SE
